User: anonymous   Login
Location: Unspecified
(0.0000°N, 0.0000°E)
Time: 21:48:20
(UTC+02:00)
Language:

Helios 1A Rocket - Orbit

View from above orbital plane
View from above orbital plane
View from above satellite
View from above satellite

Ground track
Ground track

The orbit data is extracted from the following two-line orbital elements,

1 23608U 95033D   18174.16860124  .00000816  00000-0  76974-4 0  9990
2 23608  98.2621 130.9411 0018276 108.0176 252.3037 14.96694206243249
Epoch (UTC): 23 June 2018 04:02:47
Eccentricity: 0.0018276
inclination: 98.2621°
perigee height: 564 km
apogee height: 590 km
right ascension of ascending node: 130.9411°
argument of perigee: 108.0176°
revolutions per day: 14.96694206
mean anomaly at epoch: 252.3037°
orbit number at epoch: 24324

The dashed part of the orbit path shows where the satellite is in the earth's shadow,  

DLR